,,Stat6,,Stat2,,Stat8,,Stat9,,Stat10,,Wind1,,Wind1,
time,status,PA1M_AVG,status,PR1M_SUM,status,RH1M_AVG,status,SR1M_AVG,status,TA1M_AVG,status,W1dAve1m,status,W1sAve1m,
2007-11-22, 00:00:00,VALID,918.799,VALID,0,VALID,100,VALID,-0.101885,VALID,19.3948,VALID,171,VALID,0.78054,
2007-11-22, 00:01:00,VALID,918.79,VALID,0,VALID,100,VALID,-0.0849042,VALID,19.3856,VALID,171,VALID,0.715104,
2007-11-22, 00:02:00,VALID,918.778,VALID,0,VALID,100,VALID,-0.101885,VALID,19.3689,VALID,164,VALID,0.881669,
2007-11-22, 00:03:00,VALID,918.763,VALID,0,VALID,100,VALID,-0.118866,VALID,19.3559,VALID,166,VALID,0.794212,
2007-11-22, 00:04:00,VALID,918.747,VALID,0,VALID,100,VALID,-0.0849042,VALID,19.3664,VALID,168,VALID,0.648801,
2007-11-22, 00:05:00,VALID,918.732,VALID,0,VALID,100,VALID,-0.101885,VALID,19.3362,VALID,165,VALID,0.668555,
2007-11-22, 00:06:00,VALID,918.711,VALID,0,VALID,100,VALID,-0.101885,VALID,19.3367,VALID,177,VALID,0.764583,
2007-11-22, 00:07:00,VALID,918.695,VALID,0,VALID,100,VALID,-0.101885,VALID,19.3399,VALID,180,VALID,0.801235,
2007-11-22, 00:08:00,VALID,918.673,VALID,0,VALID,100,VALID,-0.0849042,VALID,19.3564,VALID,180,VALID,0.843217,
2007-11-22, 00:09:00,VALID,918.664,VALID,0,VALID,100,VALID,-0.101885,VALID,19.3629,VALID,189,VALID,0.83631,
2007-11-22, 00:10:00,VALID,918.646,VALID,0,VALID,100,VALID,-0.135847,VALID,19.3626,VALID,183,VALID,0.86899,
2007-11-22, 00:11:00,VALID,918.636,VALID,0,VALID,100,VALID,-0.118866,VALID,19.3629,VALID,182,VALID,0.938072,
2007-11-22, 00:12:00,VALID,918.63,VALID,0,VALID,100,VALID,-0.0679233,VALID,19.3591,VALID,179,VALID,0.874818,
2007-11-22, 00:13:00,VALID,918.623,VALID,0,VALID,100,VALID,-0.101885,VALID,19.3556,VALID,177,VALID,1.0125,
2007-11-22, 00:14:00,VALID,918.616,VALID,0,VALID,100,VALID,-0.0679233,VALID,19.3624,VALID,176,VALID,0.900915,
2007-11-22, 00:15:00,VALID,918.61,VALID,0,VALID,100,VALID,-0.0849042,VALID,19.3659,VALID,183,VALID,0.95585,
2007-11-22, 00:16:00,VALID,918.592,VALID,0,VALID,100,VALID,-0.0679233,VALID,19.3659,VALID,185,VALID,0.765278,
2007-11-22, 00:17:00,VALID,918.573,VALID,0,VALID,100,VALID,-0.0849042,VALID,19.3589,VALID,181,VALID,0.780869,
2007-11-22, 00:18:00,VALID,918.558,VALID,0,VALID,100,VALID,-0.101885,VALID,19.3556,VALID,184,VALID,0.929315,
2007-11-22, 00:19:00,VALID,918.538,VALID,0,VALID,100,VALID,-0.0849042,VALID,19.3591,VALID,176,VALID,1.09792,
2007-11-22, 00:20:00,VALID,918.514,VALID,0,VALID,100,VALID,-0.118866,VALID,19.3561,VALID,175,VALID,1.11555,
2007-11-22, 00:21:00,VALID,918.502,VALID,0,VALID,100,VALID,-0.0679233,VALID,19.3489,VALID,174,VALID,0.847565,
2007-11-22, 00:22:00,VALID,918.475,VALID,0,VALID,100,VALID,-0.101885,VALID,19.3464,VALID,178,VALID,1.03797,
2007-11-22, 00:23:00,VALID,918.455,VALID,0,VALID,100,VALID,-0.101885,VALID,19.3369,VALID,175,VALID,0.812686,
2007-11-22, 00:24:00,VALID,918.46,VALID,0,VALID,100,VALID,-0.0849042,VALID,19.3304,VALID,182,VALID,0.835938,
2007-11-22, 00:25:00,VALID,918.447,VALID,0,VALID,100,VALID,-0.118866,VALID,19.314,VALID,177,VALID,0.940163,
2007-11-22, 00:26:00,VALID,918.435,VALID,0,VALID,100,VALID,-0.0849042,VALID,19.2975,VALID,182,VALID,1.10954,
2007-11-22, 00:27:00,VALID,918.424,VALID,0,VALID,100,VALID,0,VALID,19.2895,VALID,180,VALID,0.974516,
2007-11-22, 00:28:00,VALID,918.42,VALID,0,VALID,100,VALID,0,VALID,19.2863,VALID,178,VALID,1.24676,
2007-11-22, 00:29:00,VALID,918.405,VALID,0,VALID,100,VALID,0,VALID,19.2768,VALID,182,VALID,1.20352,
2007-11-22, 00:30:00,VALID,918.394,VALID,0,VALID,100,VALID,0.0339617,VALID,19.2803,VALID,178,VALID,1.15781,
2007-11-22, 00:31:00,VALID,918.39,VALID,0,VALID,100,VALID,-0.0169808,VALID,19.2766,VALID,176,VALID,1.06079,
2007-11-22, 00:32:00,VALID,918.377,VALID,0,VALID,100,VALID,0,VALID,19.2801,VALID,181,VALID,1.02616,
2007-11-22, 00:33:00,VALID,918.371,VALID,0,VALID,100,VALID,0.0169808,VALID,19.2733,VALID,182,VALID,0.684375,
2007-11-22, 00:34:00,VALID,918.347,VALID,0,VALID,100,VALID,0,VALID,19.2766,VALID,190,VALID,0.895461,
2007-11-22, 00:35:00,VALID,918.333,VALID,0,VALID,100,VALID,-0.0339617,VALID,19.2766,VALID,181,VALID,0.921317,
2007-11-22, 00:36:00,VALID,918.317,VALID,0,VALID,100,VALID,0.0169808,VALID,19.2868,VALID,183,VALID,1.23533,
2007-11-22, 00:37:00,VALID,918.306,VALID,0,VALID,100,VALID,0.0509425,VALID,19.2828,VALID,182,VALID,1.06177,
2007-11-22, 00:38:00,VALID,918.297,VALID,0,VALID,100,VALID,0.0339617,VALID,19.2793,VALID,189,VALID,0.993096,
2007-11-22, 00:39:00,VALID,918.279,VALID,0,VALID,100,VALID,-0.0169808,VALID,19.2863,VALID,177,VALID,1.00242,
2007-11-22, 00:40:00,VALID,918.254,VALID,0,VALID,100,VALID,-0.0169808,VALID,19.2763,VALID,179,VALID,0.963481,
2007-11-22, 00:41:00,VALID,918.232,VALID,0,VALID,100,VALID,0.0339617,VALID,19.2895,VALID,182,VALID,1.10061,
2007-11-22, 00:42:00,VALID,918.221,VALID,0,VALID,100,VALID,-0.101885,VALID,19.2882,VALID,179,VALID,0.99442,
2007-11-22, 00:43:00,VALID,918.215,VALID,0,VALID,100,VALID,-0.101885,VALID,19.2942,VALID,182,VALID,1.17578,
2007-11-22, 00:44:00,VALID,918.211,VALID,0,VALID,100,VALID,-0.135847,VALID,19.3077,VALID,189,VALID,1.12386,
2007-11-22, 00:45:00,VALID,918.192,VALID,0,VALID,100,VALID,-0.101885,VALID,19.308,VALID,186,VALID,1.11228,
2007-11-22, 00:46:00,VALID,918.178,VALID,0,VALID,100,VALID,-0.101885,VALID,19.311,VALID,188,VALID,1.22638,
2007-11-22, 00:47:00,VALID,918.163,VALID,0,VALID,100,VALID,-0.135847,VALID,19.31,VALID,185,VALID,1.10575,
2007-11-22, 00:48:00,VALID,918.138,VALID,0,VALID,100,VALID,-0.101885,VALID,19.3197,VALID,188,VALID,0.733285,
2007-11-22, 00:49:00,VALID,918.125,VALID,0,VALID,100,VALID,-0.0849042,VALID,19.3334,VALID,186,VALID,1.03125,
2007-11-22, 00:50:00,VALID,918.103,VALID,0,VALID,100,VALID,-0.118866,VALID,19.3372,VALID,199,VALID,1.02363,
2007-11-22, 00:51:00,VALID,918.087,VALID,0,VALID,100,VALID,-0.101885,VALID,19.3369,VALID,208,VALID,0.826923,
2007-11-22, 00:52:00,VALID,918.072,VALID,0,VALID,100,VALID,-0.135847,VALID,19.3269,VALID,204,VALID,0.721839,
2007-11-22, 00:53:00,VALID,918.049,VALID,0,VALID,100,VALID,-0.101885,VALID,19.3135,VALID,207,VALID,1.18459,
2007-11-22, 00:54:00,VALID,918.03,VALID,0,VALID,100,VALID,-0.101885,VALID,19.3102,VALID,203,VALID,0.739955,
2007-11-22, 00:55:00,VALID,918.023,VALID,0,VALID,100,VALID,-0.101885,VALID,19.2908,VALID,202,VALID,0.860899,
2007-11-22, 00:56:00,VALID,918.007,VALID,0,VALID,100,VALID,-0.118866,VALID,19.2788,VALID,197,VALID,1.23349,
2007-11-22, 00:57:00,VALID,918.014,VALID,0,VALID,100,VALID,0.0169808,VALID,19.2673,VALID,205,VALID,1.02327,
2007-11-22, 00:58:00,VALID,917.999,VALID,0,VALID,100,VALID,-0.0169808,VALID,19.2613,VALID,200,VALID,0.880952,
2007-11-22, 00:59:00,VALID,917.988,VALID,0,VALID,100,VALID,0,VALID,19.2344,VALID,198,VALID,1.14462,
2007-11-22, 01:00:00,VALID,917.99,VALID,0,VALID,100,VALID,0,VALID,19.2249,VALID,197,VALID,0.972569,
2007-11-22, 01:01:00,VALID,917.987,VALID,0,VALID,100,VALID,-0.0339617,VALID,19.2047,VALID,191,VALID,0.769531,
2007-11-22, 01:02:00,VALID,917.974,VALID,0,VALID,100,VALID,0.0169808,VALID,19.2052,VALID,197,VALID,0.648619,
2007-11-22, 01:03:00,VALID,917.964,VALID,0,VALID,100,VALID,0,VALID,19.1985,VALID,197,VALID,0.66684,
2007-11-22, 01:04:00,VALID,917.951,VALID,0,VALID,100,VALID,0,VALID,19.192,VALID,195,VALID,0.874112,
2007-11-22, 01:05:00,VALID,917.929,VALID,0,VALID,100,VALID,0,VALID,19.1922,VALID,193,VALID,0.640434,
2007-11-22, 01:06:00,VALID,917.914,VALID,0,VALID,100,VALID,0,VALID,19.1952,VALID,194,VALID,0.478601,
2007-11-22, 01:07:00,VALID,917.891,VALID,0,VALID,100,VALID,0.0169808,VALID,19.1952,VALID,188,VALID,0.810082,
2007-11-22, 01:08:00,VALID,917.87,VALID,0,VALID,100,VALID,0.0169808,VALID,19.1917,VALID,167,VALID,0.53218,
2007-11-22, 01:09:00,VALID,917.842,VALID,0,VALID,100,VALID,0.0339617,VALID,19.1952,VALID,178,VALID,0.739329,
2007-11-22, 01:10:00,VALID,917.828,VALID,0,VALID,100,VALID,0.0339617,VALID,19.192,VALID,178,VALID,0.638808,
2007-11-22, 01:11:00,VALID,917.815,VALID,0,VALID,100,VALID,0,VALID,19.1852,VALID,188,VALID,0.770597,
2007-11-22, 01:12:00,VALID,917.793,VALID,0,VALID,100,VALID,0,VALID,19.2057,VALID,162,VALID,0.857337,
2007-11-22, 01:13:00,VALID,917.785,VALID,0,VALID,100,VALID,0,VALID,19.2022,VALID,171,VALID,0.749822,
2007-11-22, 01:14:00,VALID,917.764,VALID,0,VALID,100,VALID,0,VALID,19.2022,VALID,149,VALID,0.668229,
2007-11-22, 01:15:00,VALID,917.757,VALID,0,VALID,100,VALID,-0.0169808,VALID,19.1887,VALID,159,VALID,0.708629,
2007-11-22, 01:16:00,VALID,917.736,VALID,0,VALID,100,VALID,0,VALID,19.1922,VALID,152,VALID,0.458079,
2007-11-22, 01:17:00,VALID,917.711,VALID,0,VALID,100,VALID,0,VALID,19.176,VALID,126,VALID,0.804506,
2007-11-22, 01:18:00,VALID,917.69,VALID,0,VALID,100,VALID,0,VALID,19.173,VALID,134,VALID,0.442294,
2007-11-22, 01:19:00,VALID,917.678,VALID,0,VALID,100,VALID,0.0509425,VALID,19.1498,VALID,134,VALID,0.347384,
2007-11-22, 01:20:00,VALID,917.631,VALID,0,VALID,100,VALID,0,VALID,19.1473,VALID,141,VALID,0.563453,
2007-11-22, 01:21:00,VALID,917.609,VALID,0,VALID,100,VALID,-0.0169808,VALID,19.1398,VALID,133,VALID,0.465298,
2007-11-22, 01:22:00,VALID,917.583,VALID,0,VALID,100,VALID,0.0169808,VALID,19.1174,VALID,148,VALID,0.633345,
2007-11-22, 01:23:00,VALID,917.556,VALID,0,VALID,100,VALID,0,VALID,19.1081,VALID,161,VALID,0.837358,
2007-11-22, 01:24:00,VALID,917.52,VALID,0,VALID,100,VALID,-0.0169808,VALID,19.1118,VALID,168,VALID,0.739583,
2007-11-22, 01:25:00,VALID,917.496,VALID,0,VALID,100,VALID,0,VALID,19.0919,VALID,182,VALID,0.831845,
2007-11-22, 01:26:00,VALID,917.468,VALID,0,VALID,100,VALID,0,VALID,19.1051,VALID,182,VALID,1.02569,
2007-11-22, 01:27:00,VALID,917.439,VALID,0,VALID,100,VALID,0.0169808,VALID,19.1144,VALID,177,VALID,0.911585,
2007-11-22, 01:28:00,VALID,917.417,VALID,0,VALID,100,VALID,0,VALID,19.1106,VALID,173,VALID,0.783975,
2007-11-22, 01:29:00,VALID,917.4,VALID,0,VALID,100,VALID,0,VALID,19.1209,VALID,181,VALID,0.982376,
2007-11-22, 01:30:00,VALID,917.385,VALID,0,VALID,100,VALID,-0.0169808,VALID,19.1278,VALID,179,VALID,0.995313,
2007-11-22, 01:31:00,VALID,917.379,VALID,0,VALID,100,VALID,0,VALID,19.1468,VALID,178,VALID,1.01804,
2007-11-22, 01:32:00,VALID,917.367,VALID,0,VALID,100,VALID,-0.0169808,VALID,19.1538,VALID,180,VALID,1.10899,
2007-11-22, 01:33:00,VALID,917.358,VALID,0,VALID,100,VALID,-0.0679233,VALID,19.1568,VALID,181,VALID,0.974306,
2007-11-22, 01:34:00,VALID,917.338,VALID,0,VALID,100,VALID,0,VALID,19.167,VALID,185,VALID,1.03292,
2007-11-22, 01:35:00,VALID,917.324,VALID,0,VALID,100,VALID,-0.0339617,VALID,19.163,VALID,180,VALID,0.940278,
2007-11-22, 01:36:00,VALID,917.3,VALID,0,VALID,100,VALID,-0.0169808,VALID,19.16,VALID,167,VALID,0.697743,
2007-11-22, 01:37:00,VALID,917.278,VALID,0,VALID,100,VALID,0.0169808,VALID,19.1433,VALID,165,VALID,0.763719,
2007-11-22, 01:38:00,VALID,917.255,VALID,0,VALID,100,VALID,0,VALID,19.1438,VALID,164,VALID,0.670177,
2007-11-22, 01:39:00,VALID,917.264,VALID,0,VALID,100,VALID,0,VALID,19.1343,VALID,160,VALID,0.722124,
2007-11-22, 01:40:00,VALID,917.234,VALID,0,VALID,100,VALID,-0.0509425,VALID,19.141,VALID,156,VALID,0.81715,
2007-11-22, 01:41:00,VALID,917.24,VALID,0,VALID,100,VALID,-0.0169808,VALID,19.1473,VALID,153,VALID,0.466206,
2007-11-22, 01:42:00,VALID,917.227,VALID,0,VALID,100,VALID,-0.0679233,VALID,19.1368,VALID,157,VALID,0.645894,
2007-11-22, 01:43:00,VALID,917.228,VALID,0,VALID,100,VALID,-0.0339617,VALID,19.138,VALID,164,VALID,0.725229,
2007-11-22, 01:44:00,VALID,917.211,VALID,0,VALID,100,VALID,-0.0509425,VALID,19.1209,VALID,162,VALID,0.447493,
2007-11-22, 01:45:00,VALID,917.204,VALID,0,VALID,100,VALID,-0.0339617,VALID,19.0954,VALID,161,VALID,0.0845788,
2007-11-22, 01:46:00,VALID,917.192,VALID,0,VALID,100,VALID,0.0169808,VALID,19.0425,VALID,147,VALID,0.448103,
2007-11-22, 01:47:00,VALID,917.189,VALID,0,VALID,100,VALID,0,VALID,19.0265,VALID,146,VALID,0.492374,
2007-11-22, 01:48:00,VALID,917.176,VALID,0,VALID,100,VALID,-0.0339617,VALID,19.0171,VALID,146,VALID,0.312128,
2007-11-22, 01:49:00,VALID,917.162,VALID,0,VALID,100,VALID,-0.0169808,VALID,18.9876,VALID,147,VALID,0.532812,
2007-11-22, 01:50:00,VALID,917.146,VALID,0,VALID,100,VALID,-0.0169808,VALID,18.9709,VALID,148,VALID,0.601953,
2007-11-22, 01:51:00,VALID,917.128,VALID,0,VALID,100,VALID,-0.0509425,VALID,18.9686,VALID,149,VALID,0.702344,
2007-11-22, 01:52:00,VALID,917.098,VALID,0,VALID,100,VALID,-0.0509425,VALID,18.9522,VALID,149,VALID,0.626758,
2007-11-22, 01:53:00,VALID,917.085,VALID,0,VALID,100,VALID,-0.0339617,VALID,18.9292,VALID,156,VALID,0.616186,
2007-11-22, 01:54:00,VALID,917.054,VALID,0,VALID,100,VALID,-0.0169808,VALID,18.9197,VALID,156,VALID,0.645389,
2007-11-22, 01:55:00,VALID,917.032,VALID,0,VALID,100,VALID,0,VALID,18.91,VALID,156,VALID,0.345385,
2007-11-22, 01:56:00,VALID,917.015,VALID,0,VALID,100,VALID,-0.0509425,VALID,18.9038,VALID,156,VALID,0.318452,
2007-11-22, 01:57:00,VALID,916.999,VALID,0,VALID,100,VALID,-0.0679233,VALID,18.8908,VALID,156,VALID,0.207403,
2007-11-22, 01:58:00,VALID,916.991,VALID,0,VALID,100,VALID,-0.0339617,VALID,18.8875,VALID,156,VALID,0,
2007-11-22, 01:59:00,VALID,916.97,VALID,0,VALID,100,VALID,-0.0169808,VALID,18.8706,VALID,156,VALID,0,
2007-11-22, 02:00:00,VALID,916.949,VALID,0,VALID,100,VALID,-0.0169808,VALID,18.8611,VALID,156,VALID,0,
2007-11-22, 02:01:00,VALID,916.94,VALID,0,VALID,100,VALID,-0.0339617,VALID,18.8516,VALID,156,VALID,0,
2007-11-22, 02:02:00,VALID,916.943,VALID,0,VALID,100,VALID,-0.0339617,VALID,18.8382,VALID,156,VALID,0,
2007-11-22, 02:03:00,VALID,916.929,VALID,0,VALID,100,VALID,-0.0169808,VALID,18.8386,VALID,156,VALID,0,
2007-11-22, 02:04:00,VALID,916.922,VALID,0,VALID,100,VALID,-0.0339617,VALID,18.8254,VALID,156,VALID,0,
2007-11-22, 02:05:00,VALID,916.93,VALID,0,VALID,100,VALID,-0.0509425,VALID,18.8227,VALID,156,VALID,0,
2007-11-22, 02:06:00,VALID,916.922,VALID,0,VALID,100,VALID,-0.0339617,VALID,18.8292,VALID,156,VALID,0.0990189,
2007-11-22, 02:07:00,VALID,916.91,VALID,0,VALID,100,VALID,0,VALID,18.8419,VALID,156,VALID,0.504954,
2007-11-22, 02:08:00,VALID,916.911,VALID,0,VALID,100,VALID,0,VALID,18.8417,VALID,156,VALID,0.395774,
2007-11-22, 02:09:00,VALID,916.898,VALID,0,VALID,100,VALID,-0.0679233,VALID,18.8127,VALID,156,VALID,0.017721,
2007-11-22, 02:10:00,VALID,916.885,VALID,0,VALID,100,VALID,-0.0169808,VALID,18.8486,VALID,157,VALID,0.116071,
2007-11-22, 02:11:00,VALID,916.869,VALID,0,VALID,100,VALID,-0.0169808,VALID,18.8708,VALID,160,VALID,0.650868,
2007-11-22, 02:12:00,VALID,916.862,VALID,0,VALID,100,VALID,-0.0169808,VALID,18.8841,VALID,166,VALID,0.620313,
2007-11-22, 02:13:01,VALID,916.866,VALID,0,VALID,100,VALID,-0.0679233,VALID,18.8739,VALID,172,VALID,0.61044,
2007-11-22, 02:14:00,VALID,916.846,VALID,0,VALID,100,VALID,-0.0169808,VALID,18.8674,VALID,172,VALID,0.756177,
2007-11-22, 02:15:00,VALID,916.836,VALID,0,VALID,100,VALID,-0.0169808,VALID,18.8671,VALID,173,VALID,0.661659,
2007-11-22, 02:16:00,VALID,916.834,VALID,0,VALID,100,VALID,0,VALID,18.8611,VALID,173,VALID,0.790625,
2007-11-22, 02:17:00,VALID,916.826,VALID,0,VALID,100,VALID,-0.0339617,VALID,18.8609,VALID,173,VALID,0.870898,
2007-11-22, 02:18:01,VALID,916.807,VALID,0,VALID,100,VALID,-0.0169808,VALID,18.8678,VALID,173,VALID,0.913154,
2007-11-22, 02:19:00,VALID,916.81,VALID,0,VALID,100,VALID,-0.0339617,VALID,18.8641,VALID,172,VALID,0.777951,
2007-11-22, 02:20:00,VALID,916.797,VALID,0,VALID,100,VALID,0,VALID,18.8606,VALID,172,VALID,0.666016,
2007-11-22, 02:21:00,VALID,916.783,VALID,0,VALID,100,VALID,0,VALID,18.8609,VALID,172,VALID,0.756836,
2007-11-22, 02:22:00,VALID,916.786,VALID,0,VALID,100,VALID,0,VALID,18.8609,VALID,172,VALID,0.854167,
2007-11-22, 02:23:00,VALID,916.776,VALID,0,VALID,100,VALID,-0.0169808,VALID,18.8379,VALID,173,VALID,0.742188,
2007-11-22, 02:24:01,VALID,916.767,VALID,0,VALID,100,VALID,-0.0509425,VALID,18.8319,VALID,174,VALID,0.660247,
2007-11-22, 02:25:00,VALID,916.754,VALID,0,VALID,100,VALID,-0.0169808,VALID,18.8289,VALID,183,VALID,1.00877,
2007-11-22, 02:26:00,VALID,916.744,VALID,0,VALID,100,VALID,-0.0509425,VALID,18.8287,VALID,185,VALID,1.02448,
2007-11-22, 02:27:00,VALID,916.735,VALID,0,VALID,100,VALID,-0.0169808,VALID,18.8451,VALID,186,VALID,1.20573,
2007-11-22, 02:28:00,VALID,916.724,VALID,0,VALID,100,VALID,-0.0339617,VALID,18.8484,VALID,186,VALID,1.01367,
2007-11-22, 02:29:00,VALID,916.708,VALID,0,VALID,100,VALID,0,VALID,18.8616,VALID,186,VALID,0.90952,
2007-11-22, 02:30:01,VALID,916.699,VALID,0,VALID,100,VALID,0,VALID,18.8546,VALID,190,VALID,0.870821,
2007-11-22, 02:31:01,VALID,916.693,VALID,0,VALID,100,VALID,0,VALID,18.8616,VALID,193,VALID,0.70585,
2007-11-22, 02:32:00,VALID,916.669,VALID,0,VALID,100,VALID,-0.0509425,VALID,18.8584,VALID,187,VALID,1.03943,
2007-11-22, 02:33:00,VALID,916.665,VALID,0,VALID,100,VALID,-0.0169808,VALID,18.8484,VALID,187,VALID,0.896577,
2007-11-22, 02:34:00,VALID,916.662,VALID,0,VALID,100,VALID,-0.0169808,VALID,18.8287,VALID,187,VALID,0.807958,
2007-11-22, 02:35:01,VALID,916.654,VALID,0,VALID,100,VALID,0,VALID,18.8192,VALID,185,VALID,0.68407,
2007-11-22, 02:36:00,VALID,916.658,VALID,0,VALID,100,VALID,0.0169808,VALID,18.8025,VALID,185,VALID,0.532639,
2007-11-22, 02:37:01,VALID,916.661,VALID,0,VALID,100,VALID,0,VALID,18.783,VALID,185,VALID,0.555618,
2007-11-22, 02:38:00,VALID,916.666,VALID,0,VALID,100,VALID,0,VALID,18.7705,VALID,184,VALID,0.45991,
2007-11-22, 02:39:01,VALID,916.662,VALID,0,VALID,100,VALID,0.0169808,VALID,18.7508,VALID,183,VALID,0.647195,
2007-11-22, 02:40:01,VALID,916.679,VALID,0,VALID,100,VALID,0,VALID,18.7376,VALID,183,VALID,0.220703,
2007-11-22, 02:41:00,VALID,916.665,VALID,0,VALID,100,VALID,0,VALID,18.7314,VALID,183,VALID,0.115141,
2007-11-22, 02:42:00,VALID,916.651,VALID,0,VALID,100,VALID,-0.118866,VALID,18.7231,VALID,183,VALID,0.196023,
2007-11-22, 02:43:00,VALID,916.646,VALID,0,VALID,100,VALID,-0.101885,VALID,18.7131,VALID,183,VALID,0,
2007-11-22, 02:44:00,VALID,916.635,VALID,0,VALID,100,VALID,-0.118866,VALID,18.7101,VALID,183,VALID,0,
2007-11-22, 02:45:01,VALID,916.624,VALID,0,VALID,100,VALID,-0.0849042,VALID,18.6612,VALID,183,VALID,0,
2007-11-22, 02:46:00,VALID,916.622,VALID,0,VALID,100,VALID,-0.101885,VALID,18.645,VALID,183,VALID,0,
2007-11-22, 02:47:00,VALID,916.616,VALID,0,VALID,100,VALID,-0.118866,VALID,18.626,VALID,183,VALID,0,
2007-11-22, 02:48:00,VALID,916.616,VALID,0,VALID,100,VALID,-0.135847,VALID,18.6093,VALID,183,VALID,0,
2007-11-22, 02:49:01,VALID,916.605,VALID,0,VALID,100,VALID,-0.118866,VALID,18.6095,VALID,183,VALID,0,
2007-11-22, 02:50:01,VALID,916.602,VALID,0,VALID,100,VALID,-0.118866,VALID,18.6065,VALID,183,VALID,0,
2007-11-22, 02:51:01,VALID,916.6,VALID,0,VALID,100,VALID,-0.101885,VALID,18.5871,VALID,183,VALID,0,
2007-11-22, 02:52:00,VALID,916.601,VALID,0,VALID,100,VALID,-0.118866,VALID,18.5609,VALID,183,VALID,0,
2007-11-22, 02:53:00,VALID,916.599,VALID,0,VALID,100,VALID,-0.101885,VALID,18.5544,VALID,183,VALID,0,
2007-11-22, 02:54:01,VALID,916.616,VALID,0,VALID,100,VALID,-0.0849042,VALID,18.5671,VALID,183,VALID,0,
2007-11-22, 02:55:00,VALID,916.609,VALID,0,VALID,100,VALID,-0.101885,VALID,18.5743,VALID,183,VALID,0,
2007-11-22, 02:56:01,VALID,916.599,VALID,0,VALID,100,VALID,-0.101885,VALID,18.5706,VALID,183,VALID,0,
2007-11-22, 02:57:01,VALID,916.589,VALID,0,VALID,100,VALID,0.0169808,VALID,18.5535,VALID,183,VALID,0,
2007-11-22, 02:58:01,VALID,916.579,VALID,0,VALID,100,VALID,0,VALID,18.5467,VALID,183,VALID,0,
2007-11-22, 02:59:00,VALID,916.574,VALID,0,VALID,100,VALID,-0.0339617,VALID,18.5403,VALID,183,VALID,0,
2007-11-22, 03:00:00,VALID,916.568,VALID,0,VALID,100,VALID,-0.0169808,VALID,18.5792,VALID,183,VALID,0,
2007-11-22, 03:01:01,VALID,916.56,VALID,0,VALID,100,VALID,-0.0169808,VALID,18.5819,VALID,183,VALID,0,
2007-11-22, 03:02:00,VALID,916.556,VALID,0,VALID,100,VALID,-0.0339617,VALID,18.5727,VALID,183,VALID,0,
2007-11-22, 03:03:00,VALID,916.56,VALID,0,VALID,100,VALID,-0.0169808,VALID,18.5268,VALID,183,VALID,0,
2007-11-22, 03:04:01,VALID,916.581,VALID,0,VALID,100,VALID,0,VALID,18.5141,VALID,183,VALID,0,
2007-11-22, 03:05:00,VALID,916.577,VALID,0,VALID,100,VALID,0.0169808,VALID,18.5076,VALID,183,VALID,0,
2007-11-22, 03:06:00,VALID,916.567,VALID,0,VALID,100,VALID,0,VALID,18.4911,VALID,183,VALID,0,
2007-11-22, 03:07:00,VALID,916.566,VALID,0,VALID,100,VALID,0,VALID,18.4847,VALID,183,VALID,0,
2007-11-22, 03:08:01,VALID,916.558,VALID,0,VALID,100,VALID,0,VALID,18.4622,VALID,183,VALID,0,
2007-11-22, 03:09:01,VALID,916.571,VALID,0,VALID,100,VALID,0,VALID,18.4587,VALID,183,VALID,0,
2007-11-22, 03:10:01,VALID,916.568,VALID,0,VALID,100,VALID,0,VALID,18.4592,VALID,183,VALID,0,
2007-11-22, 03:11:01,VALID,916.579,VALID,0,VALID,100,VALID,0.0169808,VALID,18.4589,VALID,183,VALID,0,
2007-11-22, 03:12:01,VALID,916.589,VALID,0,VALID,100,VALID,-0.101885,VALID,18.4925,VALID,183,VALID,0,
2007-11-22, 03:13:01,VALID,916.596,VALID,0,VALID,100,VALID,-0.101885,VALID,18.5057,VALID,183,VALID,0,
2007-11-22, 03:14:01,VALID,916.604,VALID,0,VALID,100,VALID,-0.101885,VALID,18.5152,VALID,183,VALID,0,
2007-11-22, 03:15:01,VALID,916.621,VALID,0,VALID,100,VALID,-0.101885,VALID,18.5319,VALID,183,VALID,0,
2007-11-22, 03:16:01,VALID,916.623,VALID,0,VALID,100,VALID,-0.101885,VALID,18.5185,VALID,183,VALID,0,
2007-11-22, 03:17:00,VALID,916.609,VALID,0,VALID,100,VALID,-0.0849042,VALID,18.5347,VALID,183,VALID,0,
2007-11-22, 03:18:00,VALID,916.594,VALID,0,VALID,100,VALID,-0.101885,VALID,18.5315,VALID,183,VALID,0,
2007-11-22, 03:19:00,VALID,916.589,VALID,0,VALID,100,VALID,-0.0849042,VALID,18.5382,VALID,183,VALID,0,
2007-11-22, 03:20:00,VALID,916.582,VALID,0,VALID,100,VALID,-0.0849042,VALID,18.5023,VALID,183,VALID,0,
2007-11-22, 03:21:00,VALID,916.559,VALID,0,VALID,100,VALID,-0.101885,VALID,18.5187,VALID,183,VALID,0,
2007-11-22, 03:22:00,VALID,916.541,VALID,0,VALID,100,VALID,-0.118866,VALID,18.4374,VALID,183,VALID,0,
2007-11-22, 03:23:00,VALID,916.523,VALID,0,VALID,100,VALID,-0.101885,VALID,18.2947,VALID,183,VALID,0,
2007-11-22, 03:24:00,VALID,916.518,VALID,0,VALID,100,VALID,-0.135847,VALID,18.2884,VALID,183,VALID,0,
2007-11-22, 03:25:00,VALID,916.5,VALID,0,VALID,100,VALID,-0.0849042,VALID,18.285,VALID,183,VALID,0,
2007-11-22, 03:26:00,VALID,916.504,VALID,0,VALID,100,VALID,-0.118866,VALID,18.2752,VALID,183,VALID,0,
2007-11-22, 03:27:00,VALID,916.479,VALID,0,VALID,100,VALID,0.0169808,VALID,18.2607,VALID,183,VALID,0,
2007-11-22, 03:28:00,VALID,916.48,VALID,0,VALID,100,VALID,0,VALID,18.2217,VALID,183,VALID,0,
2007-11-22, 03:29:00,VALID,916.47,VALID,0,VALID,100,VALID,0.0169808,VALID,18.1666,VALID,183,VALID,0,
2007-11-22, 03:30:00,VALID,916.469,VALID,0,VALID,100,VALID,0.0169808,VALID,18.1858,VALID,183,VALID,0,
2007-11-22, 03:31:00,VALID,916.447,VALID,0,VALID,100,VALID,0.0169808,VALID,18.2278,VALID,183,VALID,0,
2007-11-22, 03:32:00,VALID,916.431,VALID,0,VALID,100,VALID,0.0169808,VALID,18.2217,VALID,135,VALID,0.0625,
2007-11-22, 03:33:00,VALID,916.419,VALID,0,VALID,100,VALID,0.0169808,VALID,18.2607,VALID,123,VALID,0.464311,
2007-11-22, 03:34:00,VALID,916.4,VALID,0,VALID,100,VALID,-0.0339617,VALID,18.2447,VALID,107,VALID,0.523785,
2007-11-22, 03:35:00,VALID,916.402,VALID,0,VALID,100,VALID,0,VALID,18.2285,VALID,101,VALID,0.504836,
2007-11-22, 03:36:00,VALID,916.395,VALID,0,VALID,100,VALID,0,VALID,18.2377,VALID,101,VALID,0.482329,
2007-11-22, 03:37:00,VALID,916.391,VALID,0,VALID,100,VALID,0.0339617,VALID,18.231,VALID,100,VALID,0.358103,
2007-11-22, 03:38:00,VALID,916.388,VALID,0,VALID,100,VALID,0.0169808,VALID,18.2474,VALID,100,VALID,0.408203,
2007-11-22, 03:39:00,VALID,916.381,VALID,0,VALID,100,VALID,-0.0169808,VALID,18.3093,VALID,100,VALID,0.237351,
2007-11-22, 03:40:00,VALID,916.378,VALID,0,VALID,100,VALID,-0.0169808,VALID,18.3257,VALID,100,VALID,0.00644531,
2007-11-22, 03:41:00,VALID,916.384,VALID,0,VALID,100,VALID,0.0169808,VALID,18.322,VALID,100,VALID,0,
2007-11-22, 03:42:00,VALID,916.371,VALID,0,VALID,100,VALID,-0.101885,VALID,18.3526,VALID,100,VALID,0,
2007-11-22, 03:43:00,VALID,916.364,VALID,0,VALID,100,VALID,-0.118866,VALID,18.4017,VALID,100,VALID,0,